Regional Weather Roundup
Issued by NWS Charleston, WV

Home | Current Version | Previous Version | Text Only | Print | Product List | Glossary Off
Versions: 1 2 3 4 5 6 7 8 9 10 11 12 13 14 15 16 17 18 19 20 21 22 23 24 25 26 27 28 29 30 31 32 33 34 35 36 37 38 39 40 41 42 43 44 45 46 47 48 49 50

000
ASUS41 KRLX 091010
RWRRLX
West Virginia Regional Weather Roundup
National Weather Service Charleston WV
500 AM EST TUE FEB 09 2016

Note: "fair" indicates few or no clouds below 12,000 feet with no
significant weather and/or obstructions to visibility.

WVZ003-091100-
Northern Panhandle of West Virginia

CITY           SKY/WX    TMP DP  RH WIND       PRES   REMARKS
WHEELING       LGT SNOW  32  30  92 CALM      29.52S FOG
$$

WVZ009-091100-
Northwest West Virginia

CITY           SKY/WX    TMP DP  RH WIND       PRES   REMARKS
PARKERSBURG    SNOW      27  24  89 W16G24    29.63R VSB 1/2
$$

WVZ006-091100-
Western West Virginia

CITY           SKY/WX    TMP DP  RH WIND       PRES   REMARKS
HUNTINGTON     CLOUDY    25  18  74 W12       29.69R
$$

WVZ015-091100-
West Central West Virginia

CITY           SKY/WX    TMP DP  RH WIND       PRES   REMARKS
CHARLESTON     LGT SNOW  27  23  85 W10       29.65R FOG
$$

WVZ022-031-091100-
North Central West Virginia

CITY           SKY/WX    TMP DP  RH WIND       PRES   REMARKS
CLARKSBURG     LGT SNOW  31  30  96 SW7       29.53S VSB 1
MORGANTOWN     LGT SNOW  31  28  89 CALM      29.53S FOG
$$

WVZ025-035-042-045-091100-
Southern West Virginia

CITY           SKY/WX    TMP DP  RH WIND       PRES   REMARKS
BECKLEY        LGT SNOW  25  20  81 NW8       29.56R
LOGAN          LGT SNOW  25  21  86 CALM      29.64R
BLUEFIELD      LGT SNOW  23  19  85 NW12      29.55R FOG
LEWISBURG      LGT SNOW  31  28  88 W5        29.54R
$$

WVZ047-091100-
Northern Mountains of West Virginia

CITY           SKY/WX    TMP DP  RH WIND       PRES   REMARKS
ELKINS         LGT SNOW  29  25  85 SE3       29.52S FOG
$$

WVZ052-091100-
Eastern Panhandle of West Virginia

CITY           SKY/WX    TMP DP  RH WIND       PRES   REMARKS
MARTINSBURG    CLOUDY    33  32  96 CALM      29.54S FOG
PETERSBURG     CLOUDY    33  32  96 CALM      29.54S
$$



USA.gov is the U.S. government's official web portal to all federal, state and local government web resources and services.